FIN46J EGNM-EKCH

Flight info

Callsign FIN46J
Flight time 1h 31m
Altitude 37000
Route LAMI3X LAMIX L603 LAMSO DCT VALAM DCT DHE DCT DOSUR P729 TUDLO TUDL4A
Aircraft A321/M-SDE3FGHIRWY/LB1

Departure

Time 2026-05-08 05:25
Airport Leeds Bradford Airport (EGNM)

Arrival

Time 2026-05-08 06:56
Airport Copenhagen Kastrup Airport (EKCH)
Time Latitude Longitude Altitude Speed Heading
2026-05-08 05:10 53.86871 -1.65546 665 ft 0 kts
2026-05-08 05:14 53.86870 -1.65546 665 ft 2 kts
2026-05-08 05:15 53.86858 -1.65546 665 ft 3 kts
2026-05-08 05:15 53.86839 -1.65545 665 ft 3 kts 338°
2026-05-08 05:15 53.86823 -1.65532 664 ft 2 kts 315°
2026-05-08 05:15 53.86813 -1.65505 663 ft 3 kts 270°
2026-05-08 05:16 53.86813 -1.65496 662 ft 0 kts 270°
2026-05-08 05:18 53.86813 -1.65507 663 ft 2 kts 270°
2026-05-08 05:18 53.86813 -1.65537 664 ft 3 kts 270°
2026-05-08 05:18 53.86814 -1.65589 665 ft 5 kts 271°
2026-05-08 05:18 53.86815 -1.65664 665 ft 7 kts 272°
2026-05-08 05:19 53.86814 -1.65760 665 ft 9 kts 263°
2026-05-08 05:19 53.86811 -1.65878 665 ft 11 kts 271°
2026-05-08 05:19 53.86813 -1.66012 665 ft 8 kts 271°
2026-05-08 05:19 53.86828 -1.66109 665 ft 9 kts 303°
2026-05-08 05:20 53.86880 -1.66192 665 ft 11 kts 318°
2026-05-08 05:20 53.86940 -1.66291 665 ft 13 kts 310°
2026-05-08 05:20 53.86989 -1.66428 666 ft 14 kts 295°
2026-05-08 05:20 53.86974 -1.66547 668 ft 10 kts 232°
2026-05-08 05:21 53.86980 -1.66658 670 ft 11 kts 309°
2026-05-08 05:21 53.87034 -1.66743 674 ft 10 kts 317°
2026-05-08 05:21 53.87088 -1.66826 677 ft 11 kts 317°
2026-05-08 05:21 53.87143 -1.66912 682 ft 10 kts 317°
2026-05-08 05:22 53.87190 -1.66976 686 ft 8 kts 330°
2026-05-08 05:22 53.87248 -1.66997 689 ft 11 kts 360°
2026-05-08 05:22 53.87320 -1.66991 692 ft 10 kts
2026-05-08 05:22 53.87381 -1.67010 687 ft 8 kts 328°
2026-05-08 05:23 53.87402 -1.67080 697 ft 6 kts 271°
2026-05-08 05:23 53.87382 -1.67143 691 ft 8 kts 229°
2026-05-08 05:23 53.87347 -1.67207 691 ft 3 kts 212°
2026-05-08 05:23 53.87328 -1.67190 691 ft 4 kts 139°
2026-05-08 05:24 53.87327 -1.67189 691 ft 0 kts 139°
2026-05-08 05:24 53.87265 -1.67096 689 ft 32 kts 138°
2026-05-08 05:24 53.86886 -1.66514 669 ft 112 kts 138°
2026-05-08 05:24 53.86148 -1.65380 754 ft 164 kts 138°
2026-05-08 05:25 53.85297 -1.64088 1539 ft 164 kts 140°
2026-05-08 05:25 53.84442 -1.62795 2262 ft 170 kts 141°
2026-05-08 05:25 53.83506 -1.61377 2553 ft 191 kts 141°
2026-05-08 05:25 53.82508 -1.59754 2762 ft 213 kts 138°
2026-05-08 05:26 53.81405 -1.57860 2945 ft 239 kts 137°
2026-05-08 05:26 53.80190 -1.55745 3410 ft 258 kts 136°
2026-05-08 05:26 53.78936 -1.53541 4251 ft 262 kts 136°
2026-05-08 05:26 53.77647 -1.51348 5136 ft 263 kts 142°
2026-05-08 05:27 53.76168 -1.49518 6001 ft 265 kts 147°
2026-05-08 05:27 53.74645 -1.47752 6856 ft 267 kts 148°
2026-05-08 05:27 53.73102 -1.45977 7661 ft 270 kts 148°
2026-05-08 05:27 53.71534 -1.44175 8475 ft 274 kts 147°
2026-05-08 05:28 53.69971 -1.42376 9290 ft 277 kts 148°
2026-05-08 05:28 53.68367 -1.40529 10090 ft 281 kts 148°
2026-05-08 05:28 53.66701 -1.38610 10450 ft 301 kts 148°
2026-05-08 05:28 53.64905 -1.36546 10758 ft 320 kts 148°
2026-05-08 05:29 53.63042 -1.34405 11374 ft 327 kts 148°
2026-05-08 05:29 53.61148 -1.32227 12076 ft 332 kts 148°
2026-05-08 05:29 53.59226 -1.30024 12783 ft 336 kts 148°
2026-05-08 05:29 53.57279 -1.27797 13482 ft 341 kts 148°
2026-05-08 05:30 53.55334 -1.25573 14135 ft 345 kts 148°
2026-05-08 05:30 53.53341 -1.23294 14750 ft 348 kts 148°
2026-05-08 05:30 53.51323 -1.20995 15392 ft 351 kts 148°
2026-05-08 05:30 53.49291 -1.18683 16041 ft 355 kts 148°
2026-05-08 05:31 53.47241 -1.16342 16701 ft 358 kts 147°
2026-05-08 05:31 53.45340 -1.13596 17334 ft 365 kts 135°
2026-05-08 05:31 53.43779 -1.10204 17977 ft 371 kts 124°
2026-05-08 05:31 53.42569 -1.06340 18576 ft 376 kts 118°
2026-05-08 05:32 53.41402 -1.02398 19139 ft 379 kts 119°
2026-05-08 05:32 53.40233 -0.98485 19697 ft 382 kts 119°
2026-05-08 05:32 53.39032 -0.94483 20261 ft 385 kts 119°
2026-05-08 05:32 53.37818 -0.90464 20846 ft 388 kts 120°
2026-05-08 05:33 53.36573 -0.86438 21425 ft 391 kts 120°
2026-05-08 05:33 53.35303 -0.82397 21986 ft 394 kts 120°
2026-05-08 05:33 53.34012 -0.78337 22588 ft 397 kts 120°
2026-05-08 05:33 53.32707 -0.74246 23131 ft 400 kts 120°
2026-05-08 05:34 53.31396 -0.70116 23690 ft 403 kts 119°
2026-05-08 05:34 53.30336 -0.65814 24120 ft 409 kts 110°
2026-05-08 05:34 53.29493 -0.61256 24562 ft 412 kts 109°
2026-05-08 05:34 53.28638 -0.56671 24994 ft 415 kts 110°
2026-05-08 05:35 53.27766 -0.52053 25429 ft 418 kts 110°
2026-05-08 05:35 53.26885 -0.47415 25846 ft 420 kts 110°
2026-05-08 05:35 53.25998 -0.42749 26261 ft 423 kts 110°
2026-05-08 05:35 53.25101 -0.38044 26668 ft 426 kts 110°
2026-05-08 05:36 53.24200 -0.33328 27078 ft 429 kts 110°
2026-05-08 05:36 53.23291 -0.28567 27489 ft 431 kts 110°
2026-05-08 05:36 53.22379 -0.23788 27888 ft 434 kts 110°
2026-05-08 05:36 53.21470 -0.19044 28277 ft 437 kts 110°
2026-05-08 05:37 53.20538 -0.14209 28667 ft 439 kts 110°
2026-05-08 05:37 53.19597 -0.09337 29053 ft 442 kts 110°
2026-05-08 05:37 53.18651 -0.04446 29436 ft 445 kts 110°
2026-05-08 05:37 53.17697 0.00473 29810 ft 448 kts 110°
2026-05-08 05:38 53.16738 0.05422 30167 ft 450 kts 110°
2026-05-08 05:38 53.15769 0.10405 30477 ft 453 kts 110°
2026-05-08 05:38 53.14792 0.15401 30774 ft 455 kts 110°
2026-05-08 05:38 53.13821 0.20352 31093 ft 457 kts 110°
2026-05-08 05:39 53.12833 0.25389 31423 ft 459 kts 110°
2026-05-08 05:39 53.11838 0.30447 31747 ft 461 kts 110°
2026-05-08 05:39 53.10836 0.35526 32134 ft 461 kts 110°
2026-05-08 05:39 53.09836 0.40583 32591 ft 460 kts 110°
2026-05-08 05:40 53.08837 0.45623 33045 ft 458 kts 110°
2026-05-08 05:40 53.07837 0.50648 33477 ft 457 kts 110°
2026-05-08 05:40 53.06835 0.55666 33921 ft 456 kts 110°
2026-05-08 05:40 53.05837 0.60660 34318 ft 455 kts 110°
2026-05-08 05:41 53.04849 0.65576 34639 ft 455 kts 110°
2026-05-08 05:41 53.03847 0.70562 34913 ft 456 kts 110°
2026-05-08 05:41 53.02842 0.75556 35200 ft 456 kts 110°
2026-05-08 05:41 53.01832 0.80565 35485 ft 457 kts 110°
2026-05-08 05:42 53.00832 0.85524 36015 ft 451 kts 111°
2026-05-08 05:42 52.99834 0.90442 36328 ft 449 kts 111°
2026-05-08 05:42 52.98833 0.95356 36561 ft 450 kts 111°
2026-05-08 05:42 52.97886 1.00306 36778 ft 451 kts 105°
2026-05-08 05:43 52.97250 1.05422 36978 ft 453 kts 102°
2026-05-08 05:43 52.96674 1.10490 37104 ft 454 kts 102°
2026-05-08 05:43 52.96086 1.15631 37124 ft 454 kts 102°
2026-05-08 05:44 52.94892 1.25907 37127 ft 454 kts 103°
2026-05-08 05:44 52.93677 1.36175 37125 ft 454 kts 103°
2026-05-08 05:45 52.92467 1.46433 37123 ft 454 kts 103°
2026-05-08 05:45 52.91261 1.56620 37120 ft 454 kts 103°
2026-05-08 05:46 52.90038 1.66880 37127 ft 454 kts 103°
2026-05-08 05:46 52.88801 1.77123 37145 ft 453 kts 103°
2026-05-08 05:47 52.87559 1.87317 37152 ft 451 kts 103°
2026-05-08 05:47 52.86316 1.97412 37151 ft 450 kts 103°
2026-05-08 05:48 52.85069 2.07543 37144 ft 449 kts 103°
2026-05-08 05:48 52.83814 2.17658 37145 ft 448 kts 103°
2026-05-08 05:49 52.82552 2.27746 37147 ft 448 kts 103°
2026-05-08 05:49 52.81282 2.37759 37144 ft 448 kts 104°
2026-05-08 05:50 52.79996 2.47818 37148 ft 447 kts 104°
2026-05-08 05:50 52.78709 2.57870 37137 ft 447 kts 104°
2026-05-08 05:51 52.77415 2.67924 37143 ft 447 kts 104°
2026-05-08 05:51 52.76109 2.77963 37142 ft 447 kts 104°
2026-05-08 05:52 52.74806 2.87925 37140 ft 447 kts 104°
2026-05-08 05:52 52.73791 2.98047 37142 ft 449 kts 93°
2026-05-08 05:53 52.74481 3.08266 37128 ft 451 kts 78°
2026-05-08 05:53 52.75861 3.18296 37131 ft 451 kts 78°
2026-05-08 05:54 52.77201 3.28415 37125 ft 451 kts 78°
2026-05-08 05:54 52.78529 3.38555 37129 ft 452 kts 78°
2026-05-08 05:55 52.79863 3.48693 37140 ft 452 kts 78°
2026-05-08 05:55 52.81196 3.58812 37146 ft 450 kts 78°
2026-05-08 05:56 52.82501 3.68845 37149 ft 449 kts 78°
2026-05-08 05:56 52.83796 3.78925 37150 ft 448 kts 79°
2026-05-08 05:57 52.85087 3.89004 37154 ft 447 kts 79°
2026-05-08 05:57 52.86368 3.99072 37153 ft 447 kts 79°
2026-05-08 05:58 52.87638 4.09149 37141 ft 447 kts 79°
2026-05-08 05:58 52.88892 4.19155 37145 ft 447 kts 79°
2026-05-08 05:59 52.90145 4.29242 37150 ft 447 kts 79°
2026-05-08 05:59 52.91390 4.39326 37150 ft 447 kts 79°
2026-05-08 06:00 52.92622 4.49419 37168 ft 447 kts 79°
2026-05-08 06:00 52.93842 4.59469 37148 ft 450 kts 79°
2026-05-08 06:01 52.95092 4.69780 37140 ft 462 kts 79°
2026-05-08 06:01 52.96353 4.80275 37141 ft 465 kts 79°
2026-05-08 06:02 52.97608 4.90818 37140 ft 466 kts 79°
2026-05-08 06:02 52.98838 5.01296 37140 ft 466 kts 79°
2026-05-08 06:03 53.00062 5.11863 37131 ft 466 kts 80°
2026-05-08 06:03 53.01283 5.22436 37142 ft 467 kts 80°
2026-05-08 06:04 53.02560 5.33015 37154 ft 467 kts 75°
2026-05-08 06:04 53.05183 5.42766 37159 ft 467 kts 56°
2026-05-08 06:05 53.09161 5.51293 37155 ft 467 kts 51°
2026-05-08 06:05 53.13202 5.59754 37173 ft 467 kts 51°
2026-05-08 06:06 53.17232 5.68260 37183 ft 468 kts 51°
2026-05-08 06:06 53.21263 5.76766 37184 ft 468 kts 51°
2026-05-08 06:07 53.25270 5.85223 37185 ft 468 kts 51°
2026-05-08 06:07 53.29305 5.93756 37182 ft 468 kts 51°
2026-05-08 06:08 53.33322 6.02309 37179 ft 468 kts 51°
2026-05-08 06:08 53.37330 6.10896 37175 ft 468 kts 51°
2026-05-08 06:09 53.41305 6.19430 37171 ft 468 kts 51°
2026-05-08 06:09 53.45312 6.28030 37186 ft 468 kts 51°
2026-05-08 06:10 53.49311 6.36637 37177 ft 468 kts 52°
2026-05-08 06:10 53.53297 6.45280 37188 ft 468 kts 52°
2026-05-08 06:11 53.57273 6.53934 37198 ft 468 kts 52°
2026-05-08 06:11 53.61219 6.62539 37198 ft 467 kts 52°
2026-05-08 06:12 53.65187 6.71221 37200 ft 467 kts 52°
2026-05-08 06:12 53.69143 6.79907 37195 ft 467 kts 52°
2026-05-08 06:13 53.73094 6.88611 37196 ft 467 kts 52°
2026-05-08 06:13 53.77009 6.97257 37208 ft 466 kts 52°
2026-05-08 06:14 53.80943 7.05975 37204 ft 466 kts 53°
2026-05-08 06:14 53.84862 7.14709 37205 ft 466 kts 53°
2026-05-08 06:15 53.88773 7.23445 37205 ft 465 kts 53°
2026-05-08 06:15 53.92652 7.32141 37204 ft 465 kts 53°
2026-05-08 06:16 53.96545 7.40903 37213 ft 465 kts 53°
2026-05-08 06:16 54.00434 7.49680 37221 ft 464 kts 53°
2026-05-08 06:17 54.06244 7.62858 37220 ft 464 kts 53°
2026-05-08 06:17 54.10078 7.71582 37226 ft 463 kts 53°
2026-05-08 06:18 54.13924 7.80378 37222 ft 463 kts 53°
2026-05-08 06:18 54.17765 7.89194 37220 ft 463 kts 53°
2026-05-08 06:19 54.22001 7.97446 37223 ft 462 kts 47°
2026-05-08 06:19 54.26320 8.05499 37231 ft 462 kts 47°
2026-05-08 06:20 54.30653 8.13612 37230 ft 462 kts 48°
2026-05-08 06:20 54.34983 8.21735 37236 ft 461 kts 48°
2026-05-08 06:21 54.39303 8.29861 37233 ft 461 kts 48°
2026-05-08 06:21 54.43587 8.37961 37238 ft 461 kts 48°
2026-05-08 06:22 54.47891 8.46133 37234 ft 461 kts 48°
2026-05-08 06:22 54.52182 8.54312 37242 ft 460 kts 48°
2026-05-08 06:23 54.56467 8.62507 37215 ft 460 kts 48°
2026-05-08 06:23 54.60714 8.70646 37236 ft 460 kts 49°
2026-05-08 06:24 54.64980 8.78854 37235 ft 459 kts 49°
2026-05-08 06:24 54.69248 8.87077 37246 ft 459 kts 49°
2026-05-08 06:25 54.73187 8.95701 37247 ft 456 kts 61°
2026-05-08 06:25 54.76340 9.05138 37240 ft 456 kts 61°
2026-05-08 06:26 54.79492 9.14675 37238 ft 456 kts 61°
2026-05-08 06:26 54.82632 9.24228 37228 ft 456 kts 61°
2026-05-08 06:27 54.85774 9.33774 37231 ft 456 kts 61°
2026-05-08 06:27 54.88890 9.43272 37226 ft 456 kts 61°
2026-05-08 06:28 54.92010 9.52847 37247 ft 455 kts 62°
2026-05-08 06:28 54.95117 9.62439 37127 ft 457 kts 62°
2026-05-08 06:29 54.96672 9.67249 36859 ft 456 kts 62°
2026-05-08 06:29 54.98227 9.72055 36591 ft 454 kts 62°
2026-05-08 06:29 54.99755 9.76776 36108 ft 453 kts 62°
2026-05-08 06:29 55.01296 9.81544 35599 ft 451 kts 62°
2026-05-08 06:30 55.02824 9.86297 35116 ft 449 kts 63°
2026-05-08 06:30 55.04343 9.91038 34620 ft 446 kts 63°
2026-05-08 06:30 55.05848 9.95744 34136 ft 443 kts 63°
2026-05-08 06:30 55.07350 10.00446 33361 ft 445 kts 63°
2026-05-08 06:31 55.08857 10.05166 32673 ft 446 kts 63°
2026-05-08 06:31 55.10360 10.09893 32079 ft 444 kts 63°
2026-05-08 06:31 55.11848 10.14591 31507 ft 441 kts 63°
2026-05-08 06:31 55.13307 10.19200 30959 ft 438 kts 63°
2026-05-08 06:32 55.14774 10.23841 30421 ft 435 kts 63°
2026-05-08 06:32 55.16230 10.28458 29815 ft 431 kts 63°
2026-05-08 06:32 55.17668 10.33024 29349 ft 425 kts 63°
2026-05-08 06:32 55.19081 10.37520 29195 ft 420 kts 63°
2026-05-08 06:33 55.20478 10.41973 28688 ft 416 kts 63°
2026-05-08 06:33 55.21855 10.46401 28116 ft 413 kts 63°
2026-05-08 06:33 55.23175 10.50848 27556 ft 409 kts 64°
2026-05-08 06:33 55.24440 10.55296 27007 ft 407 kts 65°
2026-05-08 06:34 55.25659 10.59690 26535 ft 406 kts 65°
2026-05-08 06:34 55.26877 10.64138 26039 ft 404 kts 65°
2026-05-08 06:34 55.28089 10.68565 25569 ft 402 kts 65°
2026-05-08 06:34 55.29303 10.72972 25101 ft 400 kts 65°
2026-05-08 06:35 55.30515 10.77345 24657 ft 398 kts 65°
2026-05-08 06:35 55.31727 10.81699 24239 ft 396 kts 65°
2026-05-08 06:35 55.32939 10.86043 23816 ft 395 kts 65°
2026-05-08 06:35 55.34141 10.90367 23310 ft 393 kts 65°
2026-05-08 06:36 55.35318 10.94617 22830 ft 391 kts 65°
2026-05-08 06:36 55.36500 10.98902 22327 ft 388 kts 65°
2026-05-08 06:36 55.37672 11.03160 21856 ft 386 kts 65°
2026-05-08 06:36 55.38836 11.07396 21375 ft 383 kts 65°
2026-05-08 06:37 55.39987 11.11597 20936 ft 380 kts 65°
2026-05-08 06:37 55.41128 11.15767 20501 ft 377 kts 65°
2026-05-08 06:37 55.42261 11.19905 20082 ft 374 kts 65°
2026-05-08 06:37 55.43379 11.24006 19675 ft 369 kts 65°
2026-05-08 06:38 55.44482 11.28051 19304 ft 362 kts 65°
2026-05-08 06:38 55.45535 11.31912 18943 ft 348 kts 65°
2026-05-08 06:38 55.46561 11.35688 18608 ft 338 kts 65°
2026-05-08 06:38 55.47568 11.39405 18234 ft 334 kts 65°
2026-05-08 06:39 55.48563 11.43085 17857 ft 330 kts 65°
2026-05-08 06:39 55.49544 11.46720 17475 ft 326 kts 66°
2026-05-08 06:39 55.50512 11.50317 17095 ft 323 kts 66°
2026-05-08 06:39 55.51469 11.53880 16736 ft 320 kts 66°
2026-05-08 06:40 55.52415 11.57409 16360 ft 317 kts 66°
2026-05-08 06:40 55.53352 11.60905 16003 ft 314 kts 66°
2026-05-08 06:40 55.54271 11.64326 15660 ft 312 kts 66°
2026-05-08 06:40 55.55197 11.67776 15297 ft 309 kts 66°
2026-05-08 06:41 55.56114 11.71198 14952 ft 307 kts 66°
2026-05-08 06:41 55.57024 11.74597 14634 ft 305 kts 66°
2026-05-08 06:41 55.57925 11.77981 14317 ft 303 kts 66°
2026-05-08 06:41 55.58817 11.81340 13999 ft 301 kts 66°
2026-05-08 06:42 55.59701 11.84676 13640 ft 299 kts 66°
2026-05-08 06:42 55.60580 11.87989 13292 ft 297 kts 66°
2026-05-08 06:42 55.61440 11.91235 12946 ft 295 kts 66°
2026-05-08 06:42 55.62304 11.94505 12603 ft 292 kts 66°
2026-05-08 06:43 55.63160 11.97756 12273 ft 291 kts 67°
2026-05-08 06:43 55.64011 12.00991 11931 ft 289 kts 67°
2026-05-08 06:43 55.64857 12.04198 11592 ft 287 kts 67°
2026-05-08 06:43 55.65697 12.07384 11264 ft 285 kts 67°
2026-05-08 06:44 55.66531 12.10550 10942 ft 283 kts 67°
2026-05-08 06:44 55.67360 12.13708 10574 ft 282 kts 67°
2026-05-08 06:44 55.68175 12.16811 10217 ft 281 kts 67°
2026-05-08 06:44 55.68994 12.19942 9858 ft 279 kts 67°
2026-05-08 06:45 55.69808 12.23054 9480 ft 277 kts 67°
2026-05-08 06:45 55.70616 12.26158 9077 ft 277 kts 67°
2026-05-08 06:45 55.71418 12.29252 8683 ft 276 kts 67°
2026-05-08 06:45 55.72218 12.32340 8287 ft 275 kts 67°
2026-05-08 06:46 55.73017 12.35419 7924 ft 274 kts 67°
2026-05-08 06:46 55.73812 12.38478 7602 ft 271 kts 67°
2026-05-08 06:46 55.74598 12.41495 7294 ft 268 kts 67°
2026-05-08 06:46 55.75371 12.44477 7013 ft 264 kts 67°
2026-05-08 06:47 55.76116 12.47355 6744 ft 255 kts 66°
2026-05-08 06:47 55.76838 12.50152 6463 ft 244 kts 66°
2026-05-08 06:47 55.77532 12.52844 6152 ft 235 kts 66°
2026-05-08 06:47 55.78206 12.55461 5841 ft 231 kts 66°
2026-05-08 06:48 55.78862 12.58018 5501 ft 226 kts 66°
2026-05-08 06:48 55.79511 12.60549 5171 ft 224 kts 66°
2026-05-08 06:48 55.80156 12.63061 4831 ft 223 kts 66°
2026-05-08 06:48 55.80800 12.65574 4485 ft 224 kts 66°
2026-05-08 06:49 55.81443 12.68088 4158 ft 223 kts 66°
2026-05-08 06:49 55.82086 12.70604 3826 ft 223 kts 66°
2026-05-08 06:49 55.82716 12.73075 3494 ft 222 kts 66°
2026-05-08 06:49 55.83354 12.75578 3168 ft 221 kts 66°
2026-05-08 06:50 55.83982 12.78047 3014 ft 217 kts 69°
2026-05-08 06:50 55.84156 12.80656 3001 ft 216 kts 102°
2026-05-08 06:50 55.83468 12.83009 3008 ft 219 kts 130°
2026-05-08 06:50 55.82400 12.84951 3005 ft 220 kts 135°
2026-05-08 06:51 55.81275 12.86800 3002 ft 220 kts 140°
2026-05-08 06:51 55.79876 12.87870 3002 ft 225 kts 173°
2026-05-08 06:51 55.78312 12.87772 3029 ft 221 kts 184°
2026-05-08 06:51 55.76846 12.87442 3000 ft 206 kts 185°
2026-05-08 06:52 55.75508 12.86764 3000 ft 204 kts 206°
2026-05-08 06:52 55.74383 12.85222 3010 ft 205 kts 219°
2026-05-08 06:52 55.73319 12.83546 2871 ft 204 kts 219°
2026-05-08 06:52 55.72264 12.81891 2620 ft 202 kts 219°
2026-05-08 06:53 55.71220 12.80261 2357 ft 199 kts 219°
2026-05-08 06:53 55.70195 12.78660 2110 ft 193 kts 218°
2026-05-08 06:53 55.69210 12.77126 1835 ft 184 kts 218°
2026-05-08 06:53 55.68284 12.75682 1580 ft 169 kts 218°
2026-05-08 06:54 55.67452 12.74386 1371 ft 152 kts 218°
2026-05-08 06:54 55.66679 12.73184 1146 ft 144 kts 218°
2026-05-08 06:54 55.65933 12.72026 957 ft 141 kts 218°
2026-05-08 06:54 55.65200 12.70887 730 ft 140 kts 218°
2026-05-08 06:55 55.64470 12.69755 590 ft 139 kts 218°
2026-05-08 06:55 55.63742 12.68623 376 ft 139 kts 218°
2026-05-08 06:55 55.63014 12.67495 208 ft 139 kts 219°
2026-05-08 06:55 55.62295 12.66370 42 ft 137 kts 219°
2026-05-08 06:56 55.61667 12.65402 23 ft 98 kts 221°
2026-05-08 06:56 55.61336 12.64874 27 ft 39 kts 231°
2026-05-08 06:56 55.61228 12.64468 24 ft 23 kts 250°
2026-05-08 06:56 55.61192 12.64272 26 ft 17 kts 257°
2026-05-08 06:57 55.61218 12.64132 25 ft 11 kts 320°
2026-05-08 06:57 55.61296 12.64131 24 ft 13 kts 26°
2026-05-08 06:57 55.61373 12.64227 25 ft 14 kts 33°
2026-05-08 06:57 55.61463 12.64322 24 ft 13 kts 31°
2026-05-08 06:58 55.61526 12.64392 27 ft 11 kts 32°
2026-05-08 06:58 55.61598 12.64475 26 ft 13 kts 33°
2026-05-08 06:58 55.61666 12.64553 25 ft 11 kts 33°
2026-05-08 06:58 55.61735 12.64632 24 ft 13 kts 33°
2026-05-08 06:59 55.61816 12.64726 25 ft 15 kts 33°
2026-05-08 06:59 55.61907 12.64831 25 ft 17 kts 33°
2026-05-08 06:59 55.61998 12.64935 24 ft 14 kts 33°
2026-05-08 06:59 55.62086 12.65035 24 ft 16 kts 33°
2026-05-08 07:00 55.62176 12.65138 26 ft 14 kts 33°
2026-05-08 07:00 55.62242 12.65158 24 ft 10 kts 327°
2026-05-08 07:00 55.62288 12.65046 24 ft 12 kts 303°
2026-05-08 07:00 55.62339 12.64909 24 ft 14 kts 303°
2026-05-08 07:01 55.62365 12.64839 24 ft 7 kts 303°
2026-05-08 07:01 55.62405 12.64784 24 ft 8 kts 345°
2026-05-08 07:01 55.62471 12.64774 24 ft 11 kts 356°
2026-05-08 07:01 55.62552 12.64771 24 ft 13 kts 358°
2026-05-08 07:02 55.62632 12.64775 24 ft 11 kts
2026-05-08 07:02 55.62666 12.64817 26 ft 6 kts 78°
2026-05-08 07:02 55.62661 12.64883 27 ft 2 kts 100°
2026-05-08 07:02 55.62658 12.64907 25 ft 0 kts 101°